Theta_e
307 300 297 296 299 300 301 301 301 300 299 297 298 297 295 296 297 299 300 300 300 298 297 298 299 299 300 302 304 305 306 306 305 305 306 307 307 307 308 308 309 310 310 316 315 316 315 315 314 314 314 315 316 316 316 315 316 316 316 316 315 316 317 316 315 315 314 314 316 318 317 318 317 313 312 312 311 313 314 316 317 317 319 321 320 318
304 298 298 300 301 302 302 302 301 300 299 297 297 297 296 298 295 299 299 299 300 297 297 299 299 299 301 302 304 305 305 304 304 305 306 306 307 308 308 309 310 311 315 317 314 314 314 313 314 313 313 313 313 314 314 314 314 315 316 315 315 315 316 315 314 315 315 316 317 317 317 319 312 309 310 309 309 308 310 312 313 314 315 316 316 315
297 296 299 302 303 302 301 300 301 299 298 298 296 297 296 297 300 301 301 299 300 297 296 299 298 299 301 302 304 304 304 305 307 307 307 307 307 308 309 309 310 311 313 313 312 312 312 313 313 312 312 313 314 314 313 314 314 314 315 315 315 315 315 315 315 315 314 316 318 317 317 314 309 308 309 309 306 306 307 307 310 312 313 313 313 312
294 298 301 302 303 300 299 299 299 299 299 298 297 295 294 299 295 293 298 298 299 298 297 298 296 297 300 302 302 304 305 305 307 308 308 309 308 308 309 310 310 311 312 313 311 310 310 311 311 311 311 312 313 314 313 313 313 314 314 314 314 314 313 314 315 315 316 316 309 311 313 311 309 305 303 303 304 305 305 305 304 307 310 310 312 312
296 300 300 302 301 300 297 298 298 297 295 299 299 298 296 298 299 296 297 300 300 300 298 298 297 298 300 300 302 305 307 307 307 308 308 310 311 311 313 313 313 311 311 312 312 310 309 309 309 310 310 312 312 313 313 313 313 313 313 314 314 314 313 313 314 314 313 308 307 305 305 304 302 303 303 302 302 303 303 304 303 302 306 309 309 310
298 300 303 299 300 299 299 296 298 299 294 297 300 299 298 299 297 298 299 298 296 295 298 298 291 293 301 301 302 306 306 305 307 307 307 308 309 310 309 310 312 313 313 312 311 311 310 309 309 310 310 310 311 312 313 313 313 313 313 314 314 313 312 313 314 315 309 308 305 304 304 304 303 301 301 302 302 300 301 303 303 300 301 304 306 307
299 299 303 300 299 300 299 298 300 300 296 294 296 302 300 299 299 299 298 297 290 290 297 299 290 287 297 297 300 302 303 303 305 307 307 308 308 309 310 311 311 312 312 312 311 311 311 309 309 309 309 310 311 312 314 313 313 313 313 313 313 312 311 313 312 310 309 308 306 306 308 308 307 305 304 306 306 303 303 301 300 301 299 301 303 303
299 298 300 301 300 299 298 296 301 300 296 294 299 301 300 299 298 298 298 297 294 299 301 299 297 290 290 296 301 303 301 302 303 305 306 307 308 309 310 311 312 312 312 312 311 310 310 310 309 308 309 310 311 312 313 313 313 313 313 313 313 312 311 312 310 307 309 308 306 306 308 309 309 309 307 306 305 304 300 299 298 298 298 298 300 300
300 298 299 299 299 298 297 298 304 302 297 298 298 302 300 299 299 299 298 296 297 295 291 296 299 291 291 297 302 302 299 300 302 303 305 307 308 309 311 313 313 313 312 311 311 309 309 309 309 309 309 310 311 312 312 312 312 312 313 312 313 311 310 310 308 307 307 308 308 308 309 308 309 310 309 307 302 299 299 297 296 296 296 298 298 299
299 300 301 302 299 297 301 298 301 302 297 298 301 301 300 301 300 299 297 296 295 293 288 294 297 288 289 298 298 301 300 299 301 303 305 306 308 311 313 312 312 311 310 310 309 309 309 309 309 309 310 310 311 312 313 313 312 312 312 311 311 310 310 309 307 306 306 307 307 309 310 309 308 308 304 302 300 299 299 300 297 295 295 296 297 298
298 299 299 300 300 301 298 297 298 300 300 301 302 301 299 299 299 298 298 296 292 287 289 296 297 293 286 295 297 297 298 300 301 303 305 307 308 311 312 313 315 310 309 309 308 307 308 308 308 308 308 309 310 312 312 311 311 311 311 311 310 310 310 309 306 305 305 306 307 309 310 309 308 304 302 299 297 297 297 297 295 294 293 294 295 296
300 298 298 300 298 299 301 297 299 300 302 303 299 297 297 296 297 294 293 294 286 285 294 297 297 296 286 292 298 301 304 303 302 301 303 305 306 309 313 311 309 309 308 307 306 306 306 306 306 307 307 308 309 311 310 310 310 310 310 310 309 309 309 309 305 305 305 305 306 308 310 310 307 304 302 300 298 296 297 297 295 295 295 294 294 293
295 296 300 299 299 299 299 298 296 299 299 301 298 297 290 287 289 285 289 285 286 284 290 292 295 292 292 295 299 301 303 303 304 304 304 305 306 308 313 311 309 308 307 306 306 306 305 305 305 305 306 307 308 309 309 309 309 309 309 309 308 307 308 308 305 304 304 304 305 307 308 309 307 304 303 302 298 297 296 295 295 293 292 293 292 292
293 300 299 300 298 300 302 293 294 291 295 296 295 293 288 284 283 282 286 288 288 291 293 291 295 289 294 297 301 301 303 305 305 306 309 309 308 308 310 313 310 308 308 308 308 307 306 306 305 305 305 307 308 309 309 309 308 308 308 308 307 307 308 306 305 304 304 304 305 305 306 307 305 305 302 301 299 298 298 297 295 294 293 292 292 292
286 288 294 298 293 301 301 298 298 296 295 295 300 297 291 288 285 282 285 282 284 287 289 292 287 286 287 294 303 303 304 306 306 306 308 310 311 311 312 312 312 311 309 308 308 308 308 307 306 306 306 306 308 309 308 308 308 308 307 307 307 306 307 305 304 303 303 303 304 304 305 303 303 303 302 302 301 299 300 298 296 295 295 293 293 293
290 290 299 301 301 300 299 304 304 301 297 298 300 301 294 290 294 285 288 287 286 286 286 287 286 293 294 302 303 303 303 304 306 306 306 307 308 309 309 310 310 309 309 309 308 308 308 308 307 306 306 306 307 308 308 308 307 307 307 307 307 306 307 306 304 304 303 302 302 302 303 303 302 301 301 302 301 301 302 300 298 298 298 296 295 295
292 288 298 300 301 299 300 302 301 303 288 295 297 291 294 300 296 290 288 288 285 285 283 290 290 293 299 299 301 302 302 302 304 304 305 306 307 308 308 310 310 311 311 309 308 308 309 307 307 307 306 307 307 308 308 308 307 307 307 306 306 306 307 306 303 303 303 302 302 301 302 302 302 301 301 302 302 301 302 302 300 300 298 298 297 296
290 290 293 297 294 297 297 301 302 301 303 297 290 295 301 304 300 292 284 288 286 282 284 290 287 289 290 287 301 301 300 301 302 303 304 305 307 307 309 311 312 313 314 311 310 309 308 307 306 306 306 307 307 308 308 308 308 308 307 307 306 306 306 305 302 302 302 302 301 300 300 301 301 300 301 302 302 301 301 299 299 299 298 297 297 296
298 288 292 294 296 297 299 300 298 302 301 299 295 305 293 287 286 291 288 280 281 281 284 288 290 290 292 291 297 298 299 300 301 303 303 303 304 306 307 309 310 311 313 310 307 306 306 305 305 305 305 306 307 308 308 308 308 308 307 307 307 306 306 306 304 302 302 302 301 301 300 300 300 299 300 300 299 300 299 298 297 297 297 296 295 293
298 288 290 291 295 297 297 297 288 293 300 302 301 297 302 296 290 288 288 287 287 282 283 284 288 287 296 296 298 298 300 301 301 302 303 304 306 306 308 309 310 312 312 312 309 307 306 305 304 304 304 305 306 307 308 308 308 307 307 306 306 306 307 306 305 303 301 301 300 300 299 298 298 299 299 298 296 296 298 297 296 295 295 295 293 293
293 294 285 291 296 296 289 294 291 295 291 291 292 292 295 292 297 294 294 289 286 284 284 283 283 288 297 300 300 301 301 302 302 303 305 306 307 308 310 311 313 312 313 311 308 306 305 304 303 303 304 305 306 307 307 307 307 307 307 306 306 305 305 306 305 303 301 301 300 300 298 297 297 297 298 298 295 294 295 295 295 294 294 292 292 291
291 291 286 289 289 289 293 299 298 299 298 295 293 291 293 290 288 285 284 294 289 287 284 284 283 290 300 302 302 301 303 304 304 304 305 306 307 310 312 312 312 313 311 309 307 305 304 303 303 303 303 304 305 305 306 307 306 306 305 305 305 305 305 305 305 303 302 300 300 299 298 297 297 296 295 294 292 292 293 293 293 293 292 290 290 290
298 297 290 288 290 292 296 297 298 297 298 300 297 294 297 295 293 289 283 287 288 289 289 289 286 288 301 302 302 303 303 304 305 305 304 305 309 309 313 313 312 311 310 307 305 304 304 303 302 302 302 302 303 305 305 306 306 305 305 305 305 304 304 305 305 303 302 299 298 298 297 296 295 293 292 292 291 291 291 291 291 291 291 291 290 290
297 290 288 290 296 296 295 297 298 298 298 296 297 297 297 294 294 292 290 292 289 289 287 287 284 289 303 303 303 303 306 307 306 307 306 307 308 312 310 310 311 309 307 305 304 304 302 302 302 301 300 301 302 303 304 305 305 305 305 305 304 304 304 305 304 303 301 299 297 297 297 296 294 292 291 290 289 290 290 290 290 290 290 290 290 289
291 292 291 287 287 289 292 294 294 297 296 293 294 297 298 299 298 295 290 292 288 289 289 287 282 288 301 304 298 303 302 302 303 304 306 307 309 311 308 309 310 309 307 305 304 302 301 300 299 300 300 301 301 303 303 304 304 304 304 304 304 303 304 304 304 303 301 298 296 296 297 296 295 292 290 290 289 289 290 289 289 289 289 289 289 289
294 292 289 284 282 280 280 281 284 287 289 293 294 296 297 296 296 292 288 290 286 289 289 287 287 293 298 301 299 299 300 300 302 303 304 305 307 308 310 311 309 308 307 306 305 303 301 300 300 300 300 300 301 301 302 303 304 304 304 304 304 303 303 303 303 301 300 297 295 295 295 295 296 294 292 290 289 288 289 289 288 288 288 288 288 288
290 293 293 290 287 286 289 291 298 297 293 288 291 293 295 297 297 296 293 289 286 289 288 290 292 292 294 298 299 299 299 301 301 302 302 303 304 305 307 309 310 309 308 306 306 305 303 301 299 299 300 300 300 301 302 302 303 303 303 303 304 303 302 301 300 299 298 296 296 295 295 295 296 296 293 290 290 288 289 288 288 288 288 288 287 287
288 289 291 293 293 294 296 296 299 297 292 293 292 292 295 295 295 292 289 288 293 289 286 292 295 291 293 297 298 299 300 301 302 303 304 305 307 308 308 307 303 305 305 306 305 304 303 302 301 300 299 299 300 300 301 302 303 303 303 302 303 302 301 301 299 298 297 296 295 294 295 294 294 294 293 291 290 288 288 288 287 287 287 287 287 286
288 287 292 292 292 294 296 297 298 297 297 296 295 295 293 295 294 289 290 294 294 289 287 293 296 293 295 297 300 301 302 302 303 304 304 305 306 307 308 307 306 306 305 305 304 304 303 303 303 301 299 299 299 299 299 300 301 302 302 303 302 302 301 300 298 296 296 295 295 294 293 293 291 292 292 290 289 288 288 288 287 287 286 286 286 286
290 288 291 293 291 293 294 295 296 295 295 295 296 296 296 295 294 294 293 295 295 293 295 295 295 295 298 299 301 302 304 304 304 305 306 305 305 306 307 307 307 306 306 305 305 305 304 304 304 303 301 299 298 298 298 299 299 300 301 301 302 301 301 299 296 295 295 294 294 294 293 292 291 290 290 289 288 287 287 286 286 286 285 285 285 285
293 288 293 292 288 288 292 294 295 294 294 291 294 296 296 297 296 296 295 295 296 295 296 296 294 294 299 302 302 304 304 305 305 304 304 305 306 305 305 305 306 307 307 307 306 306 306 305 305 304 301 299 298 298 298 299 299 300 300 300 301 300 300 298 296 295 295 294 294 293 292 291 290 289 288 288 287 287 286 285 285 285 285 285 284 284
292 288 291 289 285 286 289 290 291 292 291 289 290 292 293 294 292 295 293 296 294 292 294 294 292 293 299 302 303 303 304 303 303 304 304 306 306 305 305 305 305 307 307 307 307 307 306 306 305 304 301 300 299 298 298 298 299 298 298 299 300 300 300 298 296 295 294 294 293 292 293 291 290 289 288 288 287 287 286 285 285 284 284 284 284 284
289 288 287 287 284 284 289 291 289 289 288 285 286 291 293 294 296 297 299 298 297 298 292 289 291 298 300 302 301 301 302 303 303 304 305 305 306 305 305 305 306 306 307 308 307 306 307 307 306 306 303 302 300 299 299 299 298 298 298 298 299 299 299 297 295 294 294 293 292 291 293 291 290 289 288 287 287 287 286 285 285 285 284 284 284 284
289 289 288 290 284 285 288 288 289 286 279 281 293 297 296 294 295 293 293 297 299 299 296 298 298 300 301 301 300 301 301 302 304 305 307 306 306 306 306 306 306 307 307 307 308 308 308 308 308 307 305 303 301 300 299 299 298 298 298 298 299 297 297 295 295 294 294 293 292 292 293 291 290 288 288 287 287 286 285 285 285 284 285 285 285 284
288 289 288 289 286 285 288 288 284 278 281 292 297 299 299 298 297 296 296 298 299 300 300 299 299 300 300 301 302 302 303 304 306 305 306 307 307 306 306 306 306 306 306 307 307 308 308 308 308 307 304 302 300 300 299 298 298 298 297 298 297 296 296 295 294 293 293 292 291 292 292 291 289 288 287 287 286 286 285 285 285 284 285 284 284 284
288 288 289 288 288 288 286 285 278 280 289 295 297 298 300 299 298 297 295 298 299 299 299 299 299 300 301 302 302 303 303 304 304 304 305 306 306 306 305 305 306 306 306 307 307 308 308 308 307 306 304 303 300 299 298 297 298 297 296 297 296 295 294 294 293 293 293 292 291 291 293 291 290 288 287 286 286 285 285 285 285 284 284 284 284 285
294 292 290 286 289 282 285 285 284 291 290 291 293 295 296 294 294 293 289 293 299 300 300 299 299 301 301 302 303 302 303 302 301 302 305 305 306 306 306 306 306 307 307 308 308 308 309 310 308 307 305 303 301 299 297 297 297 296 295 294 294 293 293 292 292 292 292 292 291 291 292 292 290 289 287 286 285 285 285 284 284 284 285 284 284 284
297 290 291 287 285 288 284 283 284 283 280 287 295 299 301 302 301 301 295 291 300 301 302 301 300 301 301 302 302 302 302 298 296 299 304 306 307 307 307 307 307 307 307 307 307 307 307 307 307 306 304 302 300 299 298 297 296 295 294 293 293 292 291 291 291 292 292 292 291 290 292 292 290 289 287 286 285 285 285 285 285 284 285 284 284 283
296 296 291 288 285 286 284 281 281 280 283 291 293 297 299 300 303 298 294 288 297 299 301 301 300 301 302 301 301 302 298 293 294 299 304 306 306 307 306 306 306 306 306 306 306 305 305 306 305 303 301 301 298 297 296 295 294 293 292 292 292 291 291 290 291 292 292 292 291 290 290 291 289 288 286 285 285 285 284 284 284 284 285 284 284 284
290 290 289 285 284 285 284 282 281 286 285 291 295 298 299 302 304 295 284 285 296 299 300 301 300 300 301 301 301 300 297 294 296 301 305 306 306 305 305 305 305 305 305 305 305 305 303 300 298 297 297 297 298 296 294 293 293 291 291 291 291 290 290 290 291 292 292 292 290 290 289 289 288 287 286 285 285 285 285 285 284 284 284 284 284 284
286 287 287 283 285 285 285 283 286 287 291 292 293 296 297 304 297 286 281 290 296 298 300 301 300 302 302 301 301 297 300 302 303 305 305 305 304 302 301 301 302 301 299 298 298 295 298 298 297 297 296 296 295 293 292 292 292 291 291 291 290 289 290 291 292 292 291 291 290 289 288 288 287 286 286 286 285 285 285 285 284 284 284 283 284 283
285 286 286 287 284 283 284 282 283 287 292 295 297 298 300 295 286 285 295 301 298 298 300 301 301 302 302 301 302 302 303 304 304 304 304 303 302 300 298 298 299 299 300 296 295 294 296 295 294 294 294 293 293 291 291 291 290 290 290 290 289 290 291 291 291 291 291 290 289 288 287 287 286 286 286 285 285 285 285 285 285 284 284 283 283 282
285 285 283 284 286 286 285 282 281 278 290 298 296 294 297 289 291 298 299 297 295 296 297 298 299 300 302 301 302 303 302 301 300 299 299 300 300 300 299 299 299 299 299 299 297 294 293 293 293 292 292 290 290 290 290 289 288 288 289 288 289 290 291 290 290 290 289 288 287 287 286 286 286 286 286 285 285 285 284 284 284 284 283 283 282 282
292 285 285 286 289 283 283 280 282 290 294 300 298 291 295 297 301 301 299 298 298 296 296 297 297 298 299 298 298 298 298 297 297 298 298 298 298 298 298 296 296 295 296 295 294 293 290 291 292 291 290 289 289 288 288 288 287 288 288 288 290 289 289 289 288 288 287 287 286 286 286 286 286 286 286 286 285 285 284 284 283 283 283 282 282 281
290 288 289 285 290 287 285 288 292 295 297 301 301 300 301 303 303 300 299 299 298 297 294 294 295 296 295 296 295 294 293 295 296 297 296 296 296 296 295 294 293 293 293 292 292 290 289 290 290 290 288 288 287 288 288 288 287 287 287 289 289 287 287 287 287 287 286 286 286 286 286 286 286 286 285 285 285 285 284 283 283 283 283 282 281 281
293 293 292 289 288 293 294 292 296 294 293 293 298 300 301 300 299 297 297 297 297 298 295 295 296 295 293 292 292 292 294 295 295 295 295 295 295 294 293 292 291 291 290 290 290 289 288 289 288 287 286 287 287 287 288 287 287 286 287 289 288 287 287 286 286 286 286 286 285 285 285 285 285 285 285 285 285 285 284 283 282 282 281 281 281 280
292 292 288 287 291 288 284 294 293 294 296 296 298 299 298 298 299 297 295 296 298 298 296 294 294 293 293 292 292 293 293 294 294 295 294 294 294 293 293 291 290 290 289 288 289 287 287 286 286 286 285 285 286 287 287 287 287 287 287 286 287 286 286 285 285 285 285 285 285 285 285 284 284 284 284 285 285 284 283 283 282 282 280 280 280 280
286 292 286 287 288 287 287 292 294 296 296 295 295 294 295 296 296 296 295 295 294 293 292 292 291 290 291 290 291 291 293 294 294 294 293 293 293 293 291 290 290 289 288 288 287 286 286 286 286 285 285 285 286 286 286 286 286 286 286 286 286 285 285 285 285 285 285 285 284 284 284 284 279 282 283 283 284 283 282 282 282 281 280 280 281 280
287 288 280 285 285 287 290 291 293 293 293 295 295 295 297 296 296 295 295 294 294 293 293 293 292 291 292 292 293 292 291 292 293 293 293 293 292 291 290 290 289 289 288 286 285 285 285 285 285 285 285 285 285 285 285 284 284 284 284 284 285 285 285 285 284 284 284 283 283 283 283 283 282 282 282 282 283 283 282 282 282 282 281 282 283 283
287 283 287 286 282 283 284 288 291 286 286 291 292 294 295 296 295 294 293 292 293 293 294 293 294 294 292 291 292 292 291 292 293 293 291 291 291 291 290 289 288 287 286 286 285 285 285 285 285 285 284 284 284 284 282 281 282 283 284 284 284 285 284 283 283 283 282 282 282 282 282 281 281 282 281 282 282 280 278 278 283 283 282 281 283 284
284 285 286 282 283 282 288 291 292 291 290 291 293 295 296 296 293 292 293 293 294 294 295 294 293 293 294 294 293 291 291 292 292 293 291 290 290 290 289 288 287 286 285 285 284 284 285 285 285 284 283 282 282 281 281 280 281 281 282 283 284 284 283 283 282 281 281 281 281 281 281 281 281 281 281 281 281 280 278 278 279 281 282 283 282 282
Wind_Speed
2 5 6 7 7 8 9 10 2 5 4 3 2 4 6 6 8 8 6 4 4 3 11 12 14 16 18 16 15 14 13 15 17 17 14 12 12 12 13 15 15 14 13 6 9 10 12 12 11 10 10 11 12 12 12 12 12 12 11 10 10 9 9 8 9 10 9 10 9 8 9 9 5 4 4 3 2 3 3 6 5 5 5 5 7 9
4 6 7 9 2 2 4 4 3 2 2 4 4 4 6 5 8 5 1 6 4 3 8 10 12 14 16 16 17 16 15 18 18 18 17 16 15 14 16 16 15 13 5 9 8 9 10 10 11 10 10 12 14 13 13 14 13 12 12 11 10 9 10 10 11 10 10 8 9 9 8 8 5 4 4 4 3 3 3 4 5 5 5 7 8 8
5 8 8 3 6 5 4 2 2 5 5 4 5 4 4 7 6 10 1 7 4 3 8 9 11 12 15 16 17 17 17 16 17 17 16 15 16 15 14 14 13 10 9 10 10 11 11 12 12 11 11 11 13 13 14 13 13 12 12 11 10 9 10 10 11 10 10 9 8 8 7 7 5 3 2 3 3 3 3 3 4 5 5 7 8 9
6 8 7 6 4 5 4 4 4 5 4 5 5 6 6 2 2 3 5 1 5 4 7 9 14 13 16 19 23 22 19 18 17 17 16 15 16 17 17 14 11 12 10 10 12 12 12 12 12 11 11 11 11 11 12 13 13 11 11 11 11 10 10 10 11 9 10 7 3 2 6 6 4 4 4 4 4 3 3 4 1 2 5 6 7 9
7 4 4 3 4 5 6 5 7 6 6 7 7 6 6 4 5 5 6 7 10 7 2 8 12 12 13 14 11 13 15 14 15 14 15 14 14 15 12 11 11 13 11 9 9 11 12 12 13 13 11 10 12 12 12 12 12 9 13 12 12 10 11 10 11 13 8 6 5 5 7 6 6 4 4 4 3 3 3 2 2 2 2 6 6 8
8 5 5 5 4 6 6 7 8 6 6 6 10 9 8 7 8 8 5 7 6 5 4 5 7 4 3 9 7 1 4 9 10 11 13 12 12 12 13 13 11 10 10 11 10 10 12 12 11 11 12 12 11 12 12 12 12 11 11 12 12 9 9 10 12 13 7 7 6 6 7 7 6 6 6 8 8 7 6 6 3 2 2 4 5 5
2 4 4 6 6 5 6 6 8 7 5 6 2 7 9 8 7 5 6 2 5 4 3 3 4 10 4 11 10 9 10 14 10 10 12 12 12 11 10 9 9 8 8 8 9 9 9 10 10 11 12 13 13 12 12 12 13 13 12 12 12 10 9 11 12 10 8 8 7 8 7 7 6 6 4 3 5 6 5 5 5 4 0 2 5 5
6 6 5 5 7 6 5 6 7 10 6 5 3 1 1 3 5 5 3 5 8 8 11 7 5 11 12 8 9 11 14 14 11 11 12 11 11 11 9 8 7 6 6 5 7 8 8 9 11 12 12 12 12 12 11 11 11 13 12 13 13 10 10 11 9 10 9 9 8 8 8 7 7 7 6 7 5 5 5 6 5 4 2 2 3 3
8 9 9 10 8 7 9 2 5 10 6 2 2 1 2 1 2 2 3 5 4 7 10 5 7 4 8 2 10 11 11 10 11 10 11 11 10 9 7 5 3 4 3 4 4 6 8 8 9 9 10 10 11 11 11 11 11 11 11 11 12 11 11 12 10 10 10 8 9 9 8 7 6 7 6 6 5 5 5 7 5 5 4 4 3 3
4 1 5 8 8 8 4 5 3 6 8 3 4 4 5 4 2 3 3 2 4 3 11 8 9 3 17 5 6 6 6 9 9 9 11 9 7 2 3 3 3 4 3 2 2 3 5 6 7 8 8 10 10 10 10 10 10 11 10 12 12 12 11 11 11 10 10 10 9 10 10 10 8 6 6 6 7 6 5 7 6 4 5 4 5 5
2 1 2 2 6 2 7 7 5 6 6 8 6 5 3 2 2 2 2 3 3 6 12 10 15 8 11 5 8 7 7 9 7 7 7 7 6 3 2 3 3 3 4 3 3 3 4 4 6 7 9 10 10 9 10 10 11 11 11 12 14 14 12 11 11 11 12 11 9 10 11 12 11 9 9 7 6 6 7 8 6 5 2 2 4 4
2 3 3 1 2 4 6 7 6 2 3 7 4 4 4 3 3 4 3 3 3 10 2 5 12 14 12 3 4 7 4 7 7 8 8 6 6 3 4 2 3 4 4 4 4 4 5 5 6 7 9 10 11 10 11 10 10 10 10 11 13 13 14 13 11 12 11 10 10 9 11 11 9 11 8 9 9 9 10 10 9 6 6 5 3 4
5 5 4 4 3 6 5 7 4 3 3 4 5 5 4 3 2 4 4 5 8 9 2 3 4 6 18 16 10 7 4 6 9 9 8 8 8 7 2 5 5 4 4 5 4 5 5 6 7 8 9 10 11 10 12 11 10 10 10 11 12 13 15 14 13 12 12 11 11 9 8 8 8 9 8 9 9 10 9 8 9 9 8 7 6 5
4 4 7 5 3 7 8 9 6 4 8 8 9 8 6 6 7 8 7 4 4 5 4 3 4 10 8 10 15 20 18 12 8 9 6 6 9 10 7 3 5 5 5 5 5 6 6 7 7 8 9 9 9 11 11 11 11 10 9 11 12 15 15 13 12 12 12 12 10 7 6 8 7 9 7 7 10 9 8 9 10 10 9 9 9 8
7 5 10 11 6 11 10 11 9 6 11 12 8 9 7 6 4 7 5 7 7 6 2 3 2 4 1 2 1 7 9 12 12 11 9 8 9 8 6 4 5 6 7 7 6 6 7 8 8 8 9 9 10 11 12 11 11 10 10 11 14 15 16 15 12 11 12 10 9 8 6 7 6 7 7 8 7 8 9 8 8 8 7 6 7 8
16 9 5 15 1 18 13 8 2 7 4 8 7 4 7 10 6 9 2 4 2 4 4 4 6 2 6 5 1 2 1 3 5 10 11 11 10 9 8 8 8 7 7 8 8 8 8 8 9 8 9 10 10 12 12 12 12 11 11 11 14 15 16 15 12 11 11 10 8 7 9 8 8 8 7 6 7 8 8 10 10 11 9 7 7 7
3 8 7 6 1 13 10 3 5 4 7 8 7 8 7 7 3 5 1 3 2 3 13 3 11 11 10 17 18 14 13 11 9 9 9 11 11 10 9 9 9 4 5 6 7 7 7 8 8 8 10 9 10 11 12 12 12 13 12 11 14 15 15 14 12 10 10 10 9 9 8 9 9 9 9 8 9 10 7 6 5 7 8 8 7 5
5 2 2 6 6 2 4 4 2 4 3 7 6 7 6 3 5 3 7 2 4 9 8 2 12 12 5 11 6 14 11 10 9 11 11 11 10 9 10 9 7 5 4 5 6 6 6 7 9 9 9 10 11 11 12 13 12 11 12 12 13 15 17 15 11 11 10 11 11 10 11 11 9 8 8 7 8 7 8 6 4 4 5 7 6 7
4 7 4 3 4 5 2 2 2 2 3 3 1 2 8 5 7 9 3 9 8 8 7 7 11 14 12 15 2 7 10 9 12 12 12 12 12 12 12 11 9 9 3 4 5 5 6 7 8 9 9 10 10 10 11 11 12 11 11 12 13 15 16 17 13 11 9 10 8 7 9 11 10 8 7 5 6 8 8 9 7 7 7 5 7 8
4 7 3 2 1 5 5 7 8 9 4 1 1 3 2 2 5 7 9 3 3 9 5 11 7 14 6 11 12 13 12 12 12 11 11 12 11 10 9 8 8 6 4 3 4 5 6 7 8 9 10 10 11 11 10 12 11 12 12 12 12 13 14 15 16 13 12 11 9 8 8 8 8 8 8 7 7 6 9 9 8 8 8 8 7 7
5 6 9 5 2 5 6 9 12 12 11 8 7 9 5 4 3 5 2 6 5 6 8 8 13 12 9 9 7 7 9 10 10 9 9 9 10 11 7 5 4 4 3 3 4 5 6 7 8 8 9 9 9 9 9 10 12 12 11 12 13 14 16 17 16 15 12 10 10 12 11 9 8 9 7 9 6 6 7 8 9 8 6 6 7 8
5 8 9 6 5 10 9 9 12 12 14 13 14 15 15 11 7 7 7 4 1 3 5 6 13 16 2 5 5 1 3 6 8 8 6 7 11 7 5 5 3 4 5 5 5 5 5 6 7 8 8 8 9 10 11 11 11 12 13 12 13 14 15 16 16 14 14 10 9 11 10 10 10 8 8 9 8 9 9 8 8 8 7 7 6 8
10 4 7 8 10 10 4 4 3 4 3 3 8 11 12 10 8 7 10 4 2 5 2 4 5 22 5 5 3 3 4 5 6 4 9 9 8 9 5 4 3 3 4 4 4 4 5 6 7 7 9 10 11 10 11 11 12 13 14 14 13 14 15 15 15 14 13 10 9 11 10 10 9 9 10 11 9 9 9 8 8 8 9 9 8 8
7 2 4 9 3 3 3 3 3 1 1 5 6 2 5 12 13 12 8 4 6 4 6 8 9 15 6 6 3 3 1 2 2 5 7 9 7 3 3 3 4 3 2 2 3 3 4 5 6 7 9 10 10 11 12 12 12 12 13 14 13 15 15 15 15 15 15 11 10 11 12 12 10 11 11 11 10 11 10 9 9 9 9 9 8 9
6 7 9 6 4 3 6 3 4 3 4 5 6 9 10 10 13 3 3 1 5 9 10 9 14 16 1 6 3 5 3 5 6 6 6 8 3 1 3 2 3 2 2 3 4 5 5 6 8 8 9 10 11 11 11 12 13 13 13 13 14 13 14 13 12 13 14 11 12 13 14 13 12 12 12 12 10 12 11 11 10 9 10 9 9 9
5 9 10 10 12 12 10 11 12 9 9 6 9 12 15 14 13 4 9 7 11 10 15 11 13 20 15 4 6 4 6 5 6 6 4 4 4 3 1 2 4 4 6 7 7 6 8 8 7 7 9 9 10 11 11 12 13 13 13 14 13 13 13 14 10 12 12 11 12 13 15 14 13 13 13 12 11 12 12 11 10 10 9 10 11 10
1 1 10 12 14 13 9 1 4 12 7 8 12 16 15 16 16 12 5 8 14 14 12 13 16 22 26 21 10 5 4 7 7 8 7 7 8 5 4 4 3 3 4 6 7 6 5 7 11 11 10 10 9 10 10 12 13 12 13 14 14 13 12 12 12 13 14 13 13 13 15 15 15 13 14 13 12 11 11 12 11 11 12 10 10 11
1 2 8 12 15 13 12 8 6 13 12 15 15 13 16 15 16 13 12 16 17 10 18 15 17 16 25 27 20 19 9 6 10 12 12 8 6 6 6 6 5 5 6 5 5 7 9 10 8 9 11 11 10 10 10 11 12 12 13 13 12 12 12 11 13 14 14 13 13 13 15 15 14 14 13 12 12 12 12 12 11 11 11 10 11 9
4 5 7 7 12 15 15 12 4 7 10 12 16 15 16 17 15 14 17 19 18 16 17 14 13 20 25 25 22 15 15 17 14 14 15 15 11 8 5 5 6 7 7 7 8 9 10 10 10 10 11 12 11 12 12 10 11 11 11 11 12 12 13 12 13 13 13 12 13 13 12 12 12 12 13 13 12 12 12 13 12 11 10 10 10 8
2 6 6 9 12 14 16 16 14 15 12 11 12 14 15 17 19 21 22 23 23 19 18 19 21 24 21 24 25 19 14 15 17 16 12 11 12 8 7 7 8 9 10 9 10 11 11 11 10 10 10 10 13 13 12 12 12 13 13 13 12 13 12 11 13 13 13 12 11 10 10 12 12 12 13 13 13 12 11 11 12 9 8 10 9 9
4 5 11 7 8 11 16 16 14 14 13 15 14 15 14 14 19 24 22 21 20 21 22 23 26 25 21 23 23 23 20 16 17 20 16 11 10 10 11 13 13 11 11 9 12 12 12 13 11 9 9 10 12 14 13 12 13 12 13 12 12 13 12 10 12 12 13 12 12 10 11 11 12 11 14 14 12 11 11 12 11 10 10 9 9 10
5 3 3 3 6 9 14 16 19 15 13 13 13 15 17 22 22 16 13 13 14 18 20 21 20 19 22 20 17 22 21 17 20 21 18 13 9 10 12 14 17 15 14 13 15 16 16 17 18 16 13 12 12 12 12 12 13 13 15 14 14 13 12 12 12 13 13 12 11 13 14 12 12 13 13 13 13 12 11 11 10 10 11 10 9 9
4 2 4 5 10 12 13 15 16 14 9 10 13 19 24 23 19 15 14 18 22 20 18 14 15 19 20 19 18 18 21 21 20 19 16 17 20 16 16 17 18 18 17 17 18 19 20 20 19 17 17 15 10 10 14 14 13 15 16 15 13 10 12 13 13 13 12 12 12 14 14 13 13 13 13 13 12 9 9 11 10 10 10 11 10 10
9 9 8 5 6 5 14 11 4 5 14 15 14 23 20 19 19 22 21 21 20 16 14 16 18 17 18 20 23 21 20 18 16 17 18 18 19 14 14 16 16 17 18 19 21 21 20 18 17 17 17 18 17 17 16 13 14 14 11 10 10 13 13 12 12 12 13 12 12 14 14 13 12 12 13 11 10 10 10 11 12 11 10 10 10 12
13 12 9 7 4 7 8 5 8 15 14 11 13 9 14 20 22 24 26 23 17 17 17 20 21 23 27 26 24 23 22 21 18 15 20 23 19 13 13 13 14 16 18 20 21 20 20 19 19 17 13 13 15 14 10 11 12 10 10 12 13 12 13 13 13 12 13 13 12 14 14 14 13 13 11 12 11 11 11 11 10 11 10 10 10 10
8 10 6 8 6 5 7 10 12 9 3 2 5 12 16 18 18 16 19 19 20 20 20 20 24 27 26 24 25 23 22 22 20 18 24 29 22 13 16 18 21 21 21 21 21 21 19 17 17 16 16 15 14 11 12 13 11 11 13 12 12 12 13 13 13 13 12 13 13 15 15 14 13 13 12 13 11 11 12 11 11 11 8 8 7 7
13 9 8 7 7 10 6 11 17 6 14 8 10 12 12 11 10 15 14 15 19 20 21 21 23 23 24 23 23 19 18 16 17 21 27 23 13 11 17 20 21 21 20 21 21 21 19 16 13 13 13 12 11 11 12 12 12 12 12 13 12 12 12 13 14 14 15 13 13 15 15 15 14 13 11 11 11 12 12 11 10 9 8 9 9 9
13 12 10 10 8 10 10 13 9 9 14 12 18 20 11 8 11 11 12 14 12 17 18 20 23 25 24 20 16 17 14 13 16 19 22 17 8 12 17 17 18 17 18 20 19 16 15 14 12 10 8 11 11 13 11 11 12 12 13 13 12 13 13 14 15 15 14 14 13 14 15 15 13 12 11 11 12 12 11 10 8 10 10 11 11 11
14 14 10 13 9 9 11 13 10 14 9 7 15 13 9 8 7 2 6 12 10 18 17 13 17 19 16 14 16 14 9 12 17 18 18 16 12 12 15 14 14 14 16 16 15 15 14 12 10 9 6 8 10 10 11 13 13 13 13 13 13 13 14 14 14 15 15 14 13 14 14 14 12 12 12 12 11 11 11 11 11 10 9 9 9 9
15 14 11 13 12 12 13 12 11 4 8 8 9 8 0 7 8 6 11 9 13 17 8 10 16 15 12 14 14 13 11 14 17 15 18 19 15 7 8 11 12 12 10 10 10 10 8 5 2 4 6 10 13 9 11 12 12 12 14 14 13 14 16 16 15 13 11 10 11 11 12 11 12 12 13 13 12 11 11 10 9 10 10 9 8 7
8 9 11 20 12 14 15 10 5 5 4 3 7 1 2 4 9 10 15 7 4 3 9 14 15 15 15 15 10 11 13 16 17 19 20 17 15 6 3 4 7 7 7 8 8 9 7 6 6 9 9 8 4 6 9 10 12 13 13 12 13 16 13 9 9 11 10 10 10 9 11 10 12 13 12 12 12 11 10 9 10 10 9 9 7 7
6 6 6 8 12 10 11 13 10 8 3 4 7 4 7 6 8 12 10 1 2 5 5 7 10 8 7 11 11 12 13 15 15 13 14 12 9 3 1 5 8 9 8 6 6 7 7 7 7 7 6 3 4 7 9 9 10 12 11 12 15 12 7 9 9 9 9 10 9 9 10 10 9 11 11 10 10 10 9 7 8 9 10 8 8 10
7 7 5 8 6 9 6 10 9 13 4 14 4 1 2 6 8 11 6 3 2 3 7 9 6 4 3 7 9 10 9 10 10 10 12 13 13 12 7 6 8 10 11 11 9 4 4 7 8 7 4 1 4 4 8 8 10 9 9 12 10 7 8 8 8 9 8 7 8 8 9 9 11 10 9 9 10 11 10 8 9 8 8 8 8 9
9 8 5 6 7 6 9 11 4 1 3 3 9 10 11 15 11 4 2 10 5 4 5 7 5 3 2 5 6 9 10 11 12 11 10 11 11 11 8 3 5 7 10 8 5 4 1 7 6 5 2 2 3 2 4 8 9 8 9 10 6 5 6 8 6 7 7 8 8 9 9 10 10 9 9 10 10 10 10 9 9 9 8 8 8 6
7 9 5 8 5 8 7 7 3 2 1 5 10 12 10 7 12 7 9 9 9 6 4 3 5 4 4 3 3 4 6 7 9 8 8 10 10 10 10 6 2 4 5 7 6 2 1 6 5 4 1 2 3 3 5 5 8 8 9 6 5 6 7 7 8 9 8 8 8 9 8 9 9 9 8 8 10 10 9 9 9 6 6 8 6 6
4 4 1 4 6 6 9 6 2 3 3 7 7 8 9 6 5 3 7 9 7 9 5 8 7 4 4 5 4 5 6 6 7 8 9 9 8 9 7 5 3 4 4 5 6 4 3 2 1 2 3 2 3 3 4 4 5 8 5 5 6 5 6 7 8 8 8 7 7 8 9 10 8 8 8 8 8 8 8 10 8 6 5 5 4 7
5 5 3 2 4 6 7 4 13 14 13 10 9 7 6 4 7 7 9 8 10 9 7 4 4 4 3 4 7 8 8 6 7 8 8 9 10 10 8 6 5 3 3 3 4 0 2 2 3 4 3 3 4 3 3 3 2 3 3 5 5 6 7 8 8 8 7 8 7 8 9 9 8 7 7 7 4 4 5 5 6 9 9 8 8 8
3 6 5 4 4 7 7 10 14 13 10 5 4 7 9 10 10 9 7 7 8 9 9 10 7 7 3 4 6 7 8 8 8 9 8 8 9 9 8 6 6 4 5 5 3 2 2 3 5 5 4 3 5 3 3 3 3 4 5 5 6 8 8 8 8 8 8 8 7 5 7 7 9 10 5 5 6 6 5 5 8 8 9 10 10 10
4 9 3 4 5 8 11 11 9 9 10 6 5 7 7 7 8 9 8 8 9 9 11 11 8 10 8 9 7 6 9 11 11 9 10 9 8 8 8 6 5 6 5 4 4 5 6 5 6 5 5 4 3 4 4 3 4 5 7 6 7 8 9 8 8 9 9 8 8 6 6 7 8 7 8 6 5 5 5 7 6 6 4 4 5 6
3 6 5 7 9 7 6 5 6 9 7 9 14 14 12 9 7 7 9 10 11 12 11 12 13 11 10 11 10 9 10 13 12 9 10 8 7 8 8 7 5 5 4 3 1 4 5 6 6 6 7 3 3 3 3 3 4 5 5 7 7 8 10 9 8 9 8 7 8 7 7 7 6 6 7 7 6 6 6 8 9 4 5 5 4 6
9 6 6 7 7 8 7 9 9 7 6 9 13 12 11 9 7 9 9 9 10 10 11 11 12 15 15 12 8 9 11 10 13 10 9 8 8 8 7 6 7 7 5 2 3 5 6 5 6 6 7 5 6 6 7 6 4 5 4 5 6 8 10 11 9 8 7 8 7 8 7 7 7 6 6 6 7 6 6 4 5 11 10 7 6 7
Wind_Direction
4 216 201 213 221 210 203 217 257 60 34 21 301 283 273 281 277 277 118 97 137 280 258 260 264 268 272 274 273 273 274 271 268 264 260 254 248 242 241 243 242 239 240 197 184 174 176 178 180 184 185 187 187 189 188 190 191 192 189 182 183 178 189 190 194 196 192 193 197 201 203 207 194 154 139 144 121 139 129 154 153 160 166 152 141 146
250 232 224 230 256 347 181 141 118 44 359 286 279 277 263 248 269 289 359 150 151 237 279 274 273 268 273 277 276 276 269 264 260 261 260 259 252 246 242 242 241 243 210 149 156 164 165 175 180 182 186 187 187 192 190 191 190 190 188 185 179 173 192 197 202 200 201 197 195 192 198 198 157 139 158 156 163 130 133 144 145 152 163 151 144 147
203 222 235 213 103 91 75 155 202 245 239 219 251 251 266 263 275 279 230 124 153 199 267 276 270 266 269 273 274 267 262 258 256 254 261 266 264 259 253 250 251 244 214 176 181 171 177 179 183 186 190 196 197 188 190 188 186 187 187 187 180 179 191 197 200 200 201 198 195 195 178 173 124 99 102 124 116 117 137 128 143 157 150 152 146 143
227 222 223 112 127 130 133 167 196 204 226 231 213 233 242 9 354 284 109 194 164 226 292 308 290 272 263 257 256 257 254 256 259 261 260 256 259 257 256 255 257 249 237 202 185 180 182 183 186 191 193 195 191 191 189 188 187 185 189 188 183 184 189 201 202 196 196 175 82 91 142 113 103 140 105 93 105 115 115 140 101 129 152 147 157 153
222 68 48 187 148 184 171 170 184 194 219 210 232 242 253 236 248 249 309 322 296 230 14 273 272 264 232 244 249 250 246 247 253 258 256 251 246 252 260 263 252 253 244 232 202 183 182 185 191 191 189 186 192 194 191 187 186 186 190 187 183 183 190 202 199 197 173 117 130 109 89 94 92 85 126 133 149 149 136 101 156 112 126 151 147 155
233 98 101 142 184 198 174 182 196 206 238 208 211 227 244 268 283 289 297 340 311 274 128 336 312 295 134 207 238 168 164 227 229 236 244 245 240 237 242 242 243 240 239 236 228 203 187 188 183 183 184 188 191 193 192 186 187 184 185 183 181 180 189 201 197 191 153 165 149 152 150 163 168 167 178 185 174 164 166 177 129 56 345 135 134 139
251 115 178 142 155 178 197 221 193 205 234 248 165 203 240 253 283 282 281 356 277 289 107 319 349 285 255 260 250 251 256 262 258 231 244 253 257 248 235 233 231 228 222 211 220 220 194 182 175 183 187 190 191 194 187 186 188 187 184 181 180 180 188 200 197 163 162 168 174 176 179 177 183 171 176 162 153 161 155 134 148 135 120 74 130 133
129 174 158 163 155 175 194 217 185 199 232 236 42 34 187 231 224 251 258 257 270 314 291 199 224 280 284 248 236 233 249 261 263 256 259 261 259 256 250 238 232 227 220 200 204 209 207 184 185 190 189 189 194 188 185 186 187 187 184 180 181 179 187 197 189 164 174 176 176 183 188 180 185 188 169 164 158 144 133 137 140 135 142 101 86 102
175 172 182 174 189 195 212 256 149 188 223 46 65 24 119 162 235 204 245 269 283 329 292 179 188 252 269 113 185 200 238 245 254 258 261 263 261 264 259 240 235 219 200 196 187 203 201 195 194 189 186 189 188 186 184 185 185 185 185 185 185 184 188 200 181 175 180 182 181 184 188 186 191 184 163 153 135 138 144 137 131 138 142 140 135 125
23 49 191 199 186 213 129 57 22 185 221 124 128 84 87 92 98 202 266 260 283 300 266 168 175 251 277 179 163 173 233 246 248 257 264 263 271 238 190 222 191 137 136 165 188 183 188 193 188 189 180 181 186 185 181 181 180 184 183 186 187 190 193 200 186 176 180 187 186 188 190 188 183 162 139 132 143 149 150 155 155 137 149 153 149 147
48 199 344 260 220 34 92 65 38 43 63 133 149 127 128 137 163 188 231 270 288 251 259 174 180 202 277 161 171 172 206 206 244 255 253 257 264 230 208 196 166 154 141 141 161 151 164 167 176 179 183 183 180 182 182 183 184 183 187 189 193 198 201 197 184 180 185 189 193 193 191 188 179 162 152 144 143 143 155 164 159 146 129 144 150 144
163 107 175 177 72 129 109 83 50 31 140 166 159 187 182 204 188 221 210 171 235 262 295 145 191 198 242 180 193 233 184 186 218 250 264 267 276 281 148 149 128 126 129 138 151 158 158 154 170 176 185 183 182 179 183 184 184 187 189 191 195 201 208 204 188 183 186 189 193 198 199 190 165 166 167 160 160 160 169 173 173 156 148 173 144 130
211 221 119 103 282 156 159 124 89 110 186 222 185 187 208 224 169 224 174 215 210 245 81 55 68 278 240 247 266 272 201 211 222 246 268 279 281 284 216 145 139 145 145 158 163 165 174 182 180 184 187 182 185 186 186 187 186 188 192 193 198 205 210 208 196 186 187 191 192 194 190 182 169 168 163 165 163 167 167 163 163 165 171 169 165 167
221 142 167 161 132 235 206 180 155 185 191 196 197 182 192 231 227 248 222 229 265 246 109 140 101 254 294 282 234 247 244 238 236 242 253 261 269 272 274 174 158 160 166 160 169 175 184 187 186 186 186 186 187 189 189 189 188 189 193 197 204 210 209 204 189 187 189 192 192 184 177 186 177 181 168 174 176 172 172 168 168 173 173 175 180 167
217 225 216 154 225 163 210 222 188 195 171 201 203 192 206 214 219 242 222 234 234 269 103 231 158 236 163 8 20 237 251 241 233 243 249 252 257 266 275 234 209 199 184 174 176 187 189 188 182 180 184 186 189 190 190 192 191 189 194 200 208 212 208 206 192 187 190 190 188 183 179 160 171 168 175 184 182 176 172 173 170 174 171 175 175 173
214 241 128 169 107 155 193 206 150 133 149 194 210 233 245 238 249 258 314 295 332 344 285 177 226 269 229 58 177 85 12 194 221 228 237 245 255 260 264 260 242 215 204 186 192 201 202 186 178 178 184 189 190 192 189 191 189 191 195 200 209 212 212 211 200 190 191 191 181 178 177 176 170 179 177 179 180 185 184 174 174 181 183 185 174 167
112 225 119 121 119 178 183 140 186 184 216 176 168 211 208 23 242 271 223 130 82 290 257 230 270 253 272 264 242 222 217 210 197 217 228 240 249 254 263 264 257 243 179 181 194 198 192 180 182 185 187 188 189 189 191 189 188 188 191 200 208 212 212 209 202 191 188 187 185 186 181 185 187 187 185 184 182 188 190 175 163 167 176 167 160 141
219 158 355 161 195 23 21 328 142 25 355 110 209 199 66 47 0 226 251 180 224 244 269 195 251 279 283 297 142 199 220 225 206 214 218 229 234 242 245 249 264 249 189 176 180 186 187 187 188 188 191 190 190 189 189 189 187 189 191 196 204 208 210 203 196 195 190 185 186 180 183 193 189 187 187 182 178 172 180 178 175 179 164 163 148 146
189 236 151 351 33 95 26 100 197 124 3 287 179 55 176 204 217 210 229 247 245 246 272 254 259 259 236 250 216 188 192 207 218 220 224 230 237 239 240 244 248 259 189 166 180 178 182 187 191 192 190 190 190 190 190 186 186 187 191 197 205 211 211 212 210 201 192 189 183 176 178 187 193 184 179 157 154 174 176 182 178 185 184 151 143 144
168 230 170 315 155 121 156 181 206 190 174 253 260 255 280 305 244 199 202 265 239 258 252 274 262 266 204 238 235 247 206 206 214 210 212 224 233 237 234 225 233 234 237 202 176 183 189 193 194 190 188 186 187 187 188 186 187 190 192 195 202 210 213 213 213 208 195 191 182 174 168 172 174 173 181 163 144 161 186 181 179 178 179 172 150 151
216 170 248 121 289 159 190 197 212 176 176 192 221 228 176 208 38 344 264 217 229 251 254 281 285 265 270 224 236 228 225 200 214 205 206 216 229 234 225 220 195 199 212 194 185 185 191 191 186 186 185 183 184 187 186 187 191 191 193 198 200 207 210 213 212 213 208 189 184 179 179 177 176 182 179 182 149 160 172 177 181 182 179 150 160 150
211 172 218 135 184 209 220 188 203 202 190 188 190 206 198 178 195 211 241 182 234 231 247 261 264 275 143 66 116 206 162 183 207 183 199 235 239 221 208 213 197 179 184 181 184 176 183 186 184 180 178 176 181 186 188 190 189 193 196 197 198 206 212 211 209 210 212 199 176 175 175 178 182 180 172 172 162 178 180 178 181 176 157 172 161 161
198 188 213 187 205 208 182 46 38 51 15 230 215 223 205 206 194 196 224 190 189 227 344 274 313 272 138 132 183 169 178 177 156 226 256 248 227 224 174 158 190 184 165 166 174 185 176 180 185 184 181 180 184 187 190 192 194 195 196 197 200 203 208 208 209 209 211 196 175 180 173 176 184 181 182 182 181 184 179 180 178 172 172 174 167 166
51 198 204 235 185 89 80 112 59 43 241 249 244 321 206 206 199 211 225 196 202 159 221 233 237 267 89 92 149 128 156 68 17 283 259 255 240 118 95 190 193 172 185 151 158 187 182 173 178 182 186 187 186 189 195 198 198 199 199 198 197 205 207 209 208 207 211 202 177 179 181 186 182 182 183 185 186 186 182 180 181 177 178 176 167 167
182 195 217 209 217 206 201 176 228 167 208 233 224 194 220 220 209 200 43 9 248 202 220 215 236 258 88 115 96 151 149 192 219 227 246 248 232 259 176 195 169 149 164 201 204 207 189 187 193 198 199 197 186 187 196 201 203 200 200 199 201 201 203 208 206 205 207 196 183 182 192 190 186 184 187 190 186 189 182 182 182 182 182 173 171 168
200 160 182 203 212 214 208 205 209 190 194 207 222 224 207 210 212 151 223 212 236 233 225 222 245 260 253 133 159 166 173 202 212 227 197 278 281 249 195 212 214 185 204 209 205 196 206 205 207 209 208 206 192 187 194 203 207 205 199 201 200 199 196 203 199 199 197 190 178 186 190 194 191 190 192 191 190 190 187 182 183 182 186 180 173 166
181 265 199 197 212 226 230 72 81 128 135 184 207 213 213 209 214 218 230 227 228 238 242 231 239 260 268 260 243 177 181 212 208 202 217 206 230 246 243 248 233 227 253 254 234 205 190 205 209 206 206 212 197 188 193 203 208 207 203 199 199 197 193 194 192 193 195 188 183 186 193 195 197 189 190 191 191 187 188 187 184 183 187 183 174 170
103 226 231 238 237 243 245 239 164 147 171 196 204 203 208 206 202 208 207 223 225 243 250 238 235 249 262 265 257 264 263 233 247 252 244 228 196 209 219 216 232 252 241 223 234 244 231 221 211 204 206 207 200 187 197 206 211 211 205 200 195 193 191 191 191 194 192 184 187 187 193 193 191 193 187 186 187 186 187 186 185 186 184 178 177 170
160 215 238 244 255 266 276 281 236 195 192 195 204 203 202 203 203 205 222 232 224 225 239 249 236 239 254 264 271 259 265 271 265 256 250 244 223 201 182 209 222 230 237 231 236 235 236 234 215 203 196 205 196 190 195 200 210 214 213 204 196 192 196 188 188 192 189 188 193 191 179 182 182 187 190 187 186 187 187 187 184 183 183 180 178 171
126 234 232 232 251 256 262 267 264 261 262 250 232 221 203 195 204 205 219 225 227 233 244 253 259 257 256 266 268 272 274 273 277 279 271 245 236 210 199 218 216 222 222 229 226 227 232 233 231 206 189 195 199 194 191 198 205 209 211 205 196 195 194 181 188 189 189 191 193 184 173 177 181 184 185 186 191 191 185 182 177 167 163 176 171 169
169 222 210 223 249 257 259 264 270 263 261 263 257 256 246 216 206 207 215 224 230 238 240 242 250 259 256 256 272 279 273 275 278 274 261 233 249 235 223 243 246 227 228 226 236 236 230 233 219 201 183 202 202 196 194 199 205 205 211 210 199 194 189 180 186 190 191 193 189 176 174 180 184 177 187 188 185 187 186 179 176 176 176 176 171 170
172 230 181 198 229 249 254 252 256 258 254 254 261 257 249 242 234 213 215 207 219 229 231 240 248 255 263 267 265 270 277 272 272 270 269 265 246 257 242 241 256 253 240 229 242 244 245 241 235 229 208 200 206 196 192 197 199 198 208 207 200 191 184 186 188 189 191 189 184 182 187 186 180 187 191 186 189 186 183 174 178 178 177 174 171 175
168 165 222 193 228 230 243 236 243 253 265 256 240 241 238 240 248 251 230 215 221 221 234 234 236 246 261 270 273 269 266 268 268 275 273 267 269 260 246 253 262 262 261 258 252 248 249 250 248 240 226 209 191 196 202 195 189 199 206 202 199 177 184 190 187 187 188 190 185 183 189 187 186 188 186 187 185 180 172 178 179 181 178 181 176 170
180 199 221 190 236 226 245 243 241 237 233 230 224 228 232 234 232 237 239 231 223 214 231 234 250 257 262 262 258 258 264 265 264 267 272 273 276 270 251 251 258 262 264 264 264 263 260 254 251 245 232 222 213 212 209 190 194 201 196 192 188 184 186 182 185 188 192 191 190 185 191 190 191 190 189 184 181 178 178 179 185 183 180 175 179 185
193 194 214 193 223 225 243 240 237 233 235 234 238 234 232 235 234 235 239 238 237 232 235 240 247 247 248 254 261 265 267 270 268 274 279 273 272 281 272 259 263 263 263 265 266 267 265 261 255 251 236 223 219 213 193 197 198 189 178 186 192 189 186 190 186 188 190 193 190 184 192 192 189 189 184 183 180 181 182 183 182 184 184 183 184 182
191 194 201 224 216 245 242 231 244 225 228 283 260 230 231 229 232 244 253 248 244 238 232 231 236 243 247 251 256 259 265 272 279 273 265 266 271 278 276 273 268 266 266 266 268 268 269 265 257 248 237 226 220 206 197 202 190 182 188 186 192 189 190 187 189 192 191 195 192 188 191 188 186 186 185 183 181 180 183 183 184 181 171 168 175 182
192 192 200 231 187 232 210 229 242 313 291 254 260 235 216 213 196 212 238 239 238 239 238 241 245 248 247 248 254 264 269 273 274 271 261 262 270 251 254 261 262 266 268 268 267 267 270 273 270 254 239 231 215 205 201 198 186 190 184 186 193 191 188 186 192 194 195 195 190 186 189 189 186 185 181 181 180 184 183 180 178 174 172 178 180 180
206 206 188 216 214 207 231 246 251 239 241 240 232 248 241 221 214 210 221 251 243 245 238 241 244 248 252 256 260 259 261 273 269 265 269 275 258 252 251 255 262 262 264 267 273 274 271 272 275 268 239 234 214 207 198 186 185 186 189 190 189 189 190 189 197 196 194 196 189 185 187 184 182 178 175 177 184 183 182 178 178 180 178 182 178 186
211 215 217 216 222 216 222 231 232 241 236 232 260 261 248 230 221 129 221 247 229 247 240 243 252 252 254 260 259 261 265 261 261 266 276 284 278 265 270 268 260 256 257 264 273 278 277 272 271 274 249 227 221 205 188 185 183 187 189 191 190 191 192 195 196 194 195 195 187 180 177 179 176 173 172 176 179 177 176 179 181 181 180 189 190 186
206 214 219 230 225 223 228 231 231 204 251 241 263 279 259 144 116 110 246 236 235 245 251 243 245 254 258 251 255 258 250 257 262 267 272 273 278 289 274 272 276 277 277 279 281 284 294 316 309 247 226 222 224 188 178 172 183 194 194 193 188 192 201 202 200 191 186 180 172 170 171 176 173 170 171 174 173 175 180 177 174 180 182 184 183 179
217 225 212 224 216 226 228 249 261 256 249 273 264 192 106 136 140 213 237 254 233 195 222 239 246 242 244 253 246 253 242 247 257 269 276 281 282 286 342 329 313 329 325 325 317 335 305 281 248 247 238 236 207 161 167 170 186 201 200 192 191 204 202 187 174 179 184 179 163 167 171 170 172 169 169 170 174 174 175 176 179 175 178 178 173 169
228 214 221 222 225 219 223 235 241 268 228 215 248 97 141 127 216 223 237 212 114 217 224 247 263 255 244 239 243 248 254 256 260 270 284 302 324 36 12 324 312 303 290 262 267 282 278 275 268 264 261 215 173 169 172 178 195 207 197 196 207 203 163 167 170 174 176 174 171 166 164 161 161 164 164 164 161 165 173 174 170 173 172 172 170 169
175 209 194 211 217 232 226 235 232 237 129 214 146 12 196 232 232 243 251 249 202 245 261 266 253 263 256 253 246 260 279 294 303 306 304 303 303 303 292 268 277 279 285 292 291 271 264 279 266 258 249 113 143 135 175 178 197 201 198 209 207 159 161 158 166 166 167 163 161 158 158 158 158 160 157 160 163 162 167 162 163 162 161 161 159 160
163 220 202 218 185 245 223 229 225 242 231 160 168 228 172 214 242 250 104 261 246 239 242 261 254 210 213 245 274 286 290 298 301 304 305 302 304 307 308 277 256 275 282 282 278 304 203 258 266 249 193 102 139 154 173 184 196 198 202 210 164 153 148 154 153 157 158 161 161 156 156 155 156 154 156 160 159 162 159 160 158 156 161 160 158 149
158 226 202 243 169 217 232 243 266 1 226 205 218 239 249 236 241 221 235 253 260 235 177 230 242 174 189 199 244 259 281 273 276 290 293 295 300 302 303 307 276 279 291 302 313 337 237 255 263 211 157 172 158 173 184 188 191 195 204 190 146 155 155 153 155 157 164 161 160 154 150 148 153 155 154 156 158 160 161 153 151 140 153 161 152 144
222 222 24 285 257 251 253 262 310 242 248 282 272 273 268 266 284 272 224 242 234 246 207 238 245 210 181 186 218 244 235 255 274 285 290 291 290 291 288 278 252 229 253 279 285 269 251 268 247 203 203 198 178 183 179 182 185 194 192 138 145 150 146 146 148 153 153 151 148 147 142 144 144 145 149 153 162 160 152 139 156 145 131 136 138 159
245 11 12 270 348 304 258 203 241 252 260 267 277 281 286 294 308 341 344 325 319 322 318 297 285 274 246 191 217 241 256 250 255 265 273 285 289 289 287 276 271 237 243 258 270 122 251 203 201 200 170 186 187 171 156 169 125 146 134 141 141 136 136 140 142 140 141 144 142 141 147 145 151 146 145 152 130 119 120 133 135 154 160 161 158 167
220 26 343 303 286 252 293 315 307 315 303 335 341 346 334 346 353 348 321 302 302 308 309 310 324 297 265 246 233 244 257 256 252 258 264 265 271 283 284 274 270 247 209 205 195 184 231 217 219 207 182 184 187 160 149 140 127 126 127 135 140 140 137 140 145 141 139 138 138 120 135 143 134 136 118 140 145 139 130 146 165 161 166 174 173 173
326 354 257 270 288 296 307 299 308 331 317 316 3 351 337 331 335 329 323 318 306 285 286 282 257 257 262 258 258 241 262 268 259 258 268 270 268 264 260 263 262 260 236 188 180 178 197 208 214 203 176 184 159 147 157 132 120 132 135 140 144 143 139 135 132 136 135 130 106 106 135 126 141 145 145 142 137 134 149 165 170 165 161 174 179 184
251 230 248 280 278 279 281 308 42 327 314 325 310 307 308 316 319 308 314 319 314 306 294 289 293 281 252 250 256 248 251 262 267 264 261 257 258 264 262 258 257 256 264 264 201 194 195 194 197 194 184 164 129 123 116 111 122 131 138 141 145 141 134 133 130 123 127 130 136 137 135 137 143 141 144 146 143 124 77 48 59 74 165 165 109 105
241 247 262 253 253 265 282 288 301 277 258 266 280 286 289 297 305 303 295 291 289 288 294 293 291 292 289 276 233 231 256 260 272 269 263 258 253 253 253 254 248 242 236 220 220 230 215 199 183 178 181 159 139 131 128 120 123 118 134 141 147 141 135 133 134 138 135 138 147 148 146 145 146 148 147 146 141 129 123 119 63 54 60 87 99 96